Lær å fly hos oss!

Oslo Flyveklubb har i mange år utdannet flygere til privatflygersetifikat PPL(A). Skolen har godkjenning for å drive utdanning til teoriundervisning til PPL(A), privatflygersertifikat PPL (A) og mørkeflyging.

Gi bort en flytur i gave

På en introduksjonstur vil kandidaten være med på forberedelser til, og gjennomføring av en flytur på en times varighet med en av våre instruktører.

Hvor vi holder til?

Flyplassen ligger i Lillestrøm 10 minutter med tog fra Oslo. Følg storgata fra Lillestrøms sentrum så vill man se plassen på venstre side.
Metar/TAF Gardermoen:

ENGM 130520Z 00000KT 4400 BR OVC002 05/04 Q1010 TEMPO 2000 BCFG OVC001

TAF ENGM 121700Z 1218/1318 17006KT 9999 FEW008 BKN015 BECMG 1218/1220 SCT004 BKN008 PROB40 1219/1318 0500 FG VV001 TEMPO 1221/1318 2000 SHRA BR BKN003 FEW015CB